Torna al catalogo

QB50P2

AttivoScienzaPO
NORAD 40032·PAYLOAD·🇧🇪 Belgium

Lanciato Jun 19, 2014 da Dombarovsky

Loading…

Prossimi Passaggi (prossime 24 ore)

TLE

AggiornatoSource: Space-Track

Epoca: Sep 13, 2026, 13:32 UTC

1 40032U 14033Y   26256.56424095  .00005612  00000-0  29456-3 0  9999
2 40032  98.0801 259.0437 0006062 224.1911 135.8836 15.16169190666057

Traccia QB50P2 in tempo reale con AllMySat

Download on the App Store